KIRKWALL_AIRPORT current weather conditions

sailwx.info

Wind from 250 at 9 knots

Air temperature 3.0° C
Visibility: greater than 5.4 NM
Dewpoint 1.0° C

Last reported at 2017-Dec-13 22:50 UTC.
Time now 2017-Dec-14 00:45 UTC

Location: N 58°57' W 002°54'.
View on Google Maps.

See reports from other nearby stations

  
Tides and Currents Weather Stations Pressure Air Temp Water Temp Dewpoint Dewpoint Depression Visibility Wind Speed Wind Dir Waves Ship Positions
date/time (UTC)wind fromknots sea level pressurealtimeterstation pressurevisibilityair tempwater tempwave heightnotes
2017-Dec-13 23:50 260 11 5.4 3.0
2017-Dec-13 23:20 260 9 5.4 3.0
2017-Dec-13 22:50 250 9 5.4 3.0
2017-Dec-13 22:20 250 8 5.4 3.0
2017-Dec-13 21:50 250 8 5.4 3.0
2017-Dec-13 21:20 250 8 5.4 3.0
2017-Dec-13 20:50 250 9 5.4 3.0
2017-Dec-13 20:20 240 7 5.4 2.0
2017-Dec-13 19:50 260 8 5.4 3.0
2017-Dec-13 19:20 250 12 5.4 4.0
2017-Dec-13 18:50 250 8 5.4 3.0
2017-Dec-13 18:20 250 9 5.4 3.0
2017-Dec-13 17:50 230 6 5.4 2.0 Showers in the vicinity.
2017-Dec-13 17:20 3.8 2.0 Light rain showers. Small hail/snow pellets.
2017-Dec-13 16:50 280 2 5.4 2.0
2017-Dec-13 16:20 270 9 5.4 2.0
2017-Dec-13 15:50 280 11 5.4 2.0
2017-Dec-13 15:20 280 17 4.3 2.0 Light rain showers. Small hail/snow pellets.
2017-Dec-13 14:50 280 15 gusting 27 4.9 4.0 Light rain showers. Small hail/snow pellets.
2017-Dec-13 14:20 230 17 5.4 4.0 Light rain showers.
2017-Dec-13 13:50 250 11 5.4 3.0
2017-Dec-13 13:20 260 20 5.4 3.0 Light rain showers. Small hail/snow pellets.
2017-Dec-13 12:50 250 13 5.4 4.0 Rain showers. Small hail/snow pellets.
2017-Dec-13 12:20 240 14 5.4 4.0 Showers in the vicinity.
2017-Dec-13 11:50 250 13 5.4 4.0 Showers in the vicinity.
2017-Dec-13 11:20 240 15 5.4 5.0 Showers in the vicinity.
2017-Dec-13 10:50 210 13 5.4 4.0 Showers in the vicinity.
2017-Dec-13 10:20 210 13 5.4 4.0 Showers in the vicinity.
2017-Dec-13 09:50 210 15 5.4 4.0 Showers in the vicinity.
2017-Dec-13 09:20 190 13 5.4 4.0 Light rain showers.
2017-Dec-13 08:50 180 11 3.2 4.0 Light rain showers.
2017-Dec-13 08:20 190 12 5.4 5.0
2017-Dec-13 07:50 180 11 5.4 4.0
2017-Dec-13 07:20 180 9 5.4 3.0
2017-Dec-13 06:50 180 8 5.4 3.0
2017-Dec-13 06:20 190 6 5.4 3.0
2017-Dec-13 05:50 200 11 5.4 4.0
2017-Dec-13 05:20 210 13 5.4 4.0
2017-Dec-13 04:50 200 12 5.4 4.0
2017-Dec-13 04:20 220 6 5.4 3.0
2017-Dec-13 03:50 280 12 4.3 4.0 Light drizzle.
2017-Dec-13 03:20 270 6 5.4 4.0
2017-Dec-13 02:50 250 6 5.4 3.0
2017-Dec-13 02:20 250 18 gusting 27 5.4 4.0
2017-Dec-13 01:50 240 12 5.4 4.0
2017-Dec-13 01:20 220 9 5.4 5.0
2017-Dec-13 00:50 220 8 5.4 5.0
2017-Dec-13 00:20 190 6 5.4 4.0
2017-Dec-12 23:50 200 8 5.4 3.0
2017-Dec-12 23:20 210 12 5.4 4.0
2017-Dec-12 22:50 200 13 5.4 4.0 Light drizzle.
2017-Dec-12 22:20 190 11 5.4 3.0
2017-Dec-12 21:50 190 9 5.4 3.0 Drizzle.
2017-Dec-12 21:20 200 13 5.4 4.0 Drizzle.
2017-Dec-12 20:50 200 14 5.4 5.0 Light drizzle.
2017-Dec-12 20:20 190 11 5.4 5.0
2017-Dec-12 19:50 190 12 5.4 5.0
2017-Dec-12 19:20 180 11 5.4 5.0
2017-Dec-12 18:50 180 12 5.4 4.0
2017-Dec-12 18:20 180 12 5.4 4.0
2017-Dec-12 17:50 180 13 5.4 4.0
2017-Dec-12 17:20 180 11 5.4 4.0
2017-Dec-12 16:50 180 8 5.4 3.0
2017-Dec-12 16:20 180 6 5.4 3.0
2017-Dec-12 15:50 190 7 5.4 2.0
2017-Dec-12 15:20 170 6 5.4 2.0
2017-Dec-12 14:50 180 6 5.4 2.0
2017-Dec-12 14:20 200 6 5.4 3.0
2017-Dec-12 13:50 210 6 5.4 4.0
2017-Dec-12 13:20 210 5 5.4 4.0
2017-Dec-12 12:50 210 4 5.4 4.0
2017-Dec-12 12:20 230 2 5.4 3.0
2017-Dec-12 11:50 240 4 5.4 4.0
2017-Dec-12 11:20 240 2 5.4 4.0
2017-Dec-12 10:50 230 2 5.4 4.0 Showers in the vicinity.
2017-Dec-12 10:20 260 2 5.4 3.0 Showers in the vicinity.
2017-Dec-12 09:50 250 4 5.4 3.0 Showers in the vicinity.
2017-Dec-12 09:20 260 4 5.4 2.0 Showers in the vicinity.
2017-Dec-12 08:50 240 4 5.4 2.0
2017-Dec-12 08:20 220 2 5.4 2.0
2017-Dec-12 07:50 250 2 5.4 3.0
2017-Dec-12 07:20 5.4 3.0
2017-Dec-12 06:50 5.4 4.0
2017-Dec-12 06:20 290 8 5.4 4.0
2017-Dec-12 05:50 270 4 5.4 2.0
2017-Dec-12 05:20 310 6 5.4 4.0
2017-Dec-12 04:50 310 6 5.4 4.0
2017-Dec-12 04:20 320 4 5.4 3.0
2017-Dec-12 03:50 290 5 5.4 2.0
2017-Dec-12 03:20 320 6 5.4 4.0
2017-Dec-12 02:50 330 6 5.4 5.0
2017-Dec-12 02:20 330 11 5.4 5.0
2017-Dec-12 01:50 340 9 5.4 5.0
2017-Dec-12 01:20 340 12 5.4 5.0
2017-Dec-12 00:50 340 13 5.4 5.0
2017-Dec-12 00:20 340 13 5.4 5.0